Weather History for Gunnison, CO

Change the Weather History Date:

Wednesday, February 6, 2013

  Actual Average Record
Temperature  
Mean Temperature 12 °F -  
Max Temperature 28 °F 24 °F 42 °F (2007)
Min Temperature -5 °F 0 °F -23 °F (2008)
Degree Days  
Heating Degree Days 54    
Moisture  
Dew Point 4 °F    
Average Humidity 73    
Maximum Humidity 100    
Minimum Humidity 50    
Precipitation  
Precipitation 0.00 in - - ()
Sea Level Pressure  
Sea Level Pressure 30.07 in    
Wind  
Wind Speed 1 mph (ENE)    
Max Wind Speed 7 mph    
Max Gust Speed -    
Visibility 10 miles    
Events      
Averages and records for this station are not official NWS values.
T = Trace of Precipitation, MM = Missing Value Source: NWS Daily Summary

Daily Weather History Graph

Daily Weather History Graph

Search for Another Location

Airport:

Trip Planner

Search our weather history database for the weather conditions in past years. The results will help you decide how hot, cold, wet, or windy it might be!

Date:

Astronomy

Feb. 06, 2013 Rise Set
Actual Time 7:08 AM MST 5:36 PM MST
Civil Twilight 6:40 AM MST 6:03 PM MST
Nautical Twilight 6:09 AM MST 6:35 PM MST
Astronomical Twilight 5:38 AM MST 7:06 PM MST
Moon 3:53 AM MST (2/6) 1:58 PM MST (2/6)
Length of Visible Light 11h 23m
Length of Day
10h 27m
Waning Crescent, 16% of the Moon is Illuminated
Feb 6
Waning Crescent
Feb 10
New
Feb 17
First Quarter
Feb 25
Full
Mar 4
Last Quarter

Hourly Weather History & Observations

Time (MST) Temp. Windchill Dew Point Humidity Pressure Visibility Wind Dir Wind Speed Gust Speed Precip Events Conditions
12:15 AM 5.0 °F - -2.2 °F 72% 30.11 in 10.0 mi Calm Calm - N/A   Clear
12:35 AM 1.4 °F - -2.2 °F 85% 30.11 in 10.0 mi Calm Calm - N/A   Clear
12:55 AM 1.4 °F - -2.2 °F 85% 30.10 in 10.0 mi Calm Calm - N/A   Clear
1:15 AM 1.4 °F - 1.4 °F 100% 30.10 in 8.0 mi Calm Calm - N/A   Clear
1:35 AM 3.2 °F - -2.2 °F 78% 30.10 in 10.0 mi Calm Calm - N/A   Clear
1:55 AM 1.4 °F - -5.8 °F 72% 30.10 in 10.0 mi Calm Calm - N/A   Clear
2:15 AM -0.4 °F - -2.2 °F 92% 30.10 in 10.0 mi Calm Calm - N/A   Clear
2:35 AM -0.4 °F - -0.4 °F 100% 30.10 in 10.0 mi Calm Calm - N/A   Clear
2:55 AM -0.4 °F - -4.0 °F 85% 30.09 in 10.0 mi Calm Calm - N/A   Clear
3:15 AM -2.2 °F - -7.6 °F 78% 30.08 in 10.0 mi Calm Calm - N/A   Clear
3:35 AM -0.4 °F -10.4 °F -2.2 °F 92% 30.08 in 10.0 mi ENE 4.6 mph - N/A   Clear
3:55 AM -2.2 °F -12.5 °F -11.2 °F 66% 30.08 in 10.0 mi East 4.6 mph - N/A   Clear
4:15 AM -0.4 °F - -0.4 °F 100% 30.08 in 10.0 mi Calm Calm - N/A   Clear
4:55 AM -2.2 °F - -5.8 °F 85% 30.09 in 10.0 mi Calm Calm - N/A   Clear
5:15 AM -2.2 °F - -7.6 °F 78% 30.09 in 10.0 mi Calm Calm - N/A   Clear
5:35 AM -2.2 °F - -7.6 °F 78% 30.09 in 10.0 mi Calm Calm - N/A   Clear
5:55 AM -4.0 °F -17.8 °F -7.6 °F 85% 30.08 in 10.0 mi ENE 6.9 mph - N/A   Clear
6:15 AM -4.0 °F -16.3 °F -11.2 °F 71% 30.09 in 10.0 mi NE 5.8 mph - N/A   Clear
6:35 AM -2.2 °F - -2.2 °F 100% 30.09 in 10.0 mi Calm Calm - N/A   Clear
6:55 AM -5.8 °F - -16.6 °F 60% 30.10 in 10.0 mi Calm Calm - N/A   Clear
7:15 AM -5.8 °F - -11.2 °F 77% 30.10 in 10.0 mi Calm Calm - N/A   Clear
7:35 AM -5.8 °F -14.5 °F -5.8 °F 100% 30.10 in 10.0 mi ENE 3.5 mph - N/A   Clear
8:35 AM -2.2 °F - -13.0 °F 60% 30.10 in 10.0 mi Calm Calm - N/A   Clear
8:55 AM -2.2 °F - -4.0 °F 92% 30.10 in 10.0 mi Calm Calm - N/A   Clear
9:35 AM 1.4 °F - -5.8 °F 72% 30.10 in 10.0 mi Calm Calm - N/A   Clear
10:15 AM 5.0 °F -2.1 °F -9.4 °F 52% 30.10 in 10.0 mi SE 3.5 mph - N/A   Clear
10:35 AM 6.8 °F - 5.0 °F 92% 30.10 in 10.0 mi Calm Calm - N/A   Clear
10:55 AM 10.4 °F - 6.8 °F 85% 30.09 in 10.0 mi Calm Calm - N/A   Clear
11:15 AM 12.2 °F - -0.4 °F 57% 30.08 in 10.0 mi Calm Calm - N/A   Clear
11:35 AM 14.0 °F - 12.2 °F 93% 30.07 in 10.0 mi Calm Calm - N/A   Clear
11:55 AM 15.8 °F - 8.6 °F 73% 30.05 in 10.0 mi Calm Calm - N/A   Clear
12:15 PM 17.6 °F - 3.2 °F 53% 30.05 in 10.0 mi Calm Calm - N/A   Clear
12:35 PM 19.4 °F - 8.6 °F 63% 30.04 in 10.0 mi Calm Calm - N/A   Mostly Cloudy
12:55 PM 23.0 °F - 19.4 °F 86% 30.03 in 10.0 mi Calm Calm - N/A   Overcast
1:15 PM 21.2 °F 16.4 °F 8.6 °F 58% 30.02 in 10.0 mi East 3.5 mph - N/A   Overcast
1:35 PM 21.2 °F 16.4 °F 5.0 °F 50% 30.01 in 10.0 mi ESE 3.5 mph - N/A   Overcast
1:55 PM 23.0 °F - 10.4 °F 59% 30.01 in 10.0 mi Calm Calm - N/A   Mostly Cloudy
2:15 PM 24.8 °F - 14.0 °F 64% 30.01 in 10.0 mi Calm Calm - N/A   Mostly Cloudy
2:35 PM 24.8 °F - 14.0 °F 64% 30.02 in 10.0 mi Calm Calm - N/A   Overcast
2:55 PM 24.8 °F 20.5 °F 14.0 °F 64% 30.01 in 10.0 mi SE 3.5 mph - N/A   Scattered Clouds
3:15 PM 24.8 °F - 12.2 °F 59% 30.01 in 10.0 mi Calm Calm - N/A   Mostly Cloudy
3:35 PM 26.6 °F - 10.4 °F 51% 30.01 in 10.0 mi Calm Calm - N/A   Overcast
3:55 PM 26.6 °F - 10.4 °F 51% 30.02 in 10.0 mi Calm Calm - N/A   Mostly Cloudy
4:15 PM 26.6 °F - 12.2 °F 55% 30.01 in 10.0 mi Calm Calm - N/A   Scattered Clouds
4:35 PM 26.6 °F 22.6 °F 14.0 °F 59% 30.02 in 10.0 mi WSW 3.5 mph - N/A   Mostly Cloudy
4:55 PM 28.4 °F - 15.8 °F 59% 30.02 in 10.0 mi Calm Calm - N/A   Mostly Cloudy
5:15 PM 26.6 °F 22.6 °F 14.0 °F 59% 30.02 in 10.0 mi SSE 3.5 mph - N/A   Overcast
5:35 PM 26.6 °F 21.2 °F 14.0 °F 59% 30.03 in 10.0 mi NE 4.6 mph - N/A   Overcast
5:55 PM 26.6 °F 22.6 °F 14.0 °F 59% 30.04 in 10.0 mi NNE 3.5 mph - N/A   Scattered Clouds
6:35 PM 24.8 °F 19.1 °F 12.2 °F 59% 30.05 in 10.0 mi NNW 4.6 mph - N/A   Mostly Cloudy
6:55 PM 21.2 °F - 10.4 °F 63% 30.05 in 10.0 mi Calm Calm - N/A   Mostly Cloudy
7:15 PM 21.2 °F - 12.2 °F 68% 30.05 in 10.0 mi Calm Calm - N/A   Scattered Clouds
7:35 PM 21.2 °F 16.4 °F 12.2 °F 68% 30.05 in 10.0 mi NNW 3.5 mph - N/A   Clear
8:15 PM 15.8 °F - 8.6 °F 73% 30.07 in 10.0 mi Calm Calm - N/A   Mostly Cloudy
8:35 PM 19.4 °F - 8.6 °F 63% 30.08 in 10.0 mi Calm Calm - N/A   Mostly Cloudy
8:55 PM 15.8 °F - 3.2 °F 58% 30.08 in 10.0 mi Calm Calm - N/A   Mostly Cloudy
9:15 PM 17.6 °F - 15.8 °F 93% 30.08 in 10.0 mi Calm Calm - N/A   Partly Cloudy
9:35 PM 17.6 °F - 14.0 °F 86% 30.09 in 10.0 mi Calm Calm - N/A   Mostly Cloudy
9:55 PM 19.4 °F - 10.4 °F 68% 30.09 in 10.0 mi Calm Calm - N/A   Overcast
10:15 PM 19.4 °F - 10.4 °F 68% 30.10 in 10.0 mi Calm Calm - N/A   Overcast
10:35 PM 17.6 °F - 6.8 °F 63% 30.10 in 10.0 mi Calm Calm - N/A   Overcast
10:55 PM 19.4 °F 12.8 °F 12.2 °F 74% 30.10 in 10.0 mi North 4.6 mph - N/A   Overcast
11:15 PM 19.4 °F - 15.8 °F 86% 30.10 in 10.0 mi Calm Calm - N/A   Overcast
11:35 PM 19.4 °F 14.3 °F 12.2 °F 74% 30.11 in 10.0 mi NNE 3.5 mph - N/A   Overcast
11:55 PM 19.4 °F - 10.4 °F 68% 30.12 in 10.0 mi Calm Calm - N/A   Overcast